User: anonymous   Login
Location: Bonn
(50.7330°N, 7.1000°E)
Time: 21:01:14
(UTC+02:00)
Language:

Cosmos 1933 Rocket - Orbit

View from above orbital plane
View from above orbital plane
View from above satellite
View from above satellite

Ground track
Ground track

The orbit data is extracted from the following two-line orbital elements,

1 18959U 88020B   15185.17145383  .00000164  00000-0  17223-4 0  9992
2 18959 082.5366 217.9253 0016235 336.8553 086.5312 14.83151258474742
Epoch (UTC): 04 July 2015 04:06:53
Eccentricity: 0.0016235
inclination: 82.5366°
perigee height: 608 km
apogee height: 631 km
right ascension of ascending node: 217.9253°
argument of perigee: 336.8553°
revolutions per day: 14.83151258
mean anomaly at epoch: 86.5312°
orbit number at epoch: 47474

The dashed part of the orbit path shows where the satellite is in the earth's shadow,  

DLR